Tracking 33068 objects as of 24-Jan-2026
HD Live streaming from Space Station
objects crossing your sky now

HULIANWANG DIGUI-27

Track HULIANWANG DIGUI-27 now!
10-day predictions


NORAD ID: 63694
Int'l Code: 2025-086H
Perigee: 1,174.0 km
Apogee: 1,176.1 km
Inclination: 86.5 °
Period: 108.7 minutes
Semi major axis: 7546 km
RCS: Unknown
Launch date: April 28, 2025
Source: People's Republic of China (PRC)
Launch site: Wenchang Satellite Launch Center (WSC)
Your satellite tracking list
Your tracking list is empty




NASA's NSSDC Master Catalog

Two Line Element Set (TLE):
1 63694U 25086H   26024.46071550  .00000040  00000-0  58479-4 0  9992
2 63694  86.5070   1.4710 0001346  78.5829 281.5456 13.24416845 35830
Source of the keplerian elements: AFSPC